Tracking 20241 objects as of 28-Jan-2020
HD Live streaming from Space Station
objects crossing your sky now

THORAD DELTA 1 DEB

Track THORAD DELTA 1 DEB now!
10-day predictions


NORAD ID: 8146
Int'l Code: 1974-089Q
Perigee: 1,305.5 km
Apogee: 1,598.7 km
Inclination: 101.7 °
Period: 114.8 minutes
Semi major axis: 7823 km
RCS: 0.2088 m2 (medium)
Launch date: November 15, 1974
Source: United States (US)
Launch site: AIR FORCE WESTERN TEST RANGE (AFWTR)

Note: This is SATELLITE DEBRIS
aabbcc
Your satellite tracking list
Your tracking list is empty




NASA's NSSDC Master Catalog

Two Line Element Set (TLE):
1  8146U 74089Q   20027.88227748 -.00000248 +00000-0 -11735-2 0  9999
2  8146 101.6984 347.7325 0187383 311.2447 075.1581 12.54688872068599
Source of the keplerian elements: AFSPC